sat.trackr.live / text

‹ back to catalog

NANOSATC-BR1

NORAD 40024 · 2014-033Q

PAYLOAD ACTIVE UNKNOWN

§ Identity

Operator
Country
BRAZ
Launch date
2014-06-19
Launch site
DLS
Launch vehicle
Mass (kg)
RCS (m²)
0.04

Purposes: tech_demo

External: N2YO · Heavens-Above · Gunter

§ Orbital elements

Epoch: 2026-05-25T01:40:05.945664Z

Period
94.08 min
Inclination
98.0745°
Eccentricity
0.0001985
Mean motion
15.30608434 rev/d
Perigee alt
472.6 km
Apogee alt
475.4 km
Semi-major
6,852.1 km
B*
5.0280e-4
RAAN
175.4223°
Arg perigee
243.9457°
Mean anomaly
116.1578°
Rev number
65,044

§ Raw data

NANOSATC-BR11 40024U 14033Q   26145.06951326  .00014805  00000+0  50280-3 0  99962 40024  98.0745 175.4223 0001985 243.9457 116.1578 15.30608434650448

JSON: /api/v1/satellites/40024 · /tle

For live sub-satellite position, see the globe view (requires WebGL).

§ Visibility from observer

Set your observer location to see the next 7 days of passes ≥ 10°. The values pass through the URL so the page stays shareable.

No JS? Fill the form by hand. The geolocation button needs JavaScript.

§ Radio — SatNOGS DB

ModeDescriptionDownlinkUplink
BPSK Mode V - BPSK1k2 - TLM 145.865 MHz

1 transmitter · refreshed weekly from db.satnogs.org